www.pogodaiklimat.ru

Погода и климат >> Архив погоды >> Малайзия >> Bintulu


ПОГОДА в Bintulu

  • Прогноз погоды в Bintulu
  • Монитор погоды в Bintulu
  • Климат города

АРХИВ ПОГОДЫ в Bintulu

Время (UTC), дата Ветер
(напр.,м/с)
 
Видим.   Явления Облачность Т
(С)
Тd
(С)
f
(%)
Тe
(С)
Тes
(С)
Комфортность P
(гПа)
Po
(гПа)
Тmin
(С)
Tmax
(С)
R
(мм)
R24
(мм)
S
(см)
03 11.10 ЮВ 1 30 км {дождь} 9/5 420 м
[Cu med, cong Ac As]
+29.4 +26.4 84 +45 +50 опасность
перегрева
1010.3 1007.6
06 11.10 СЗ 3 18 км осадки на расстоянии 9/4 480 м
[Cu med, cong Ac trans Ci fib]
+30.6 +27.4 83 +49 +54 опасность
перегрева
1007.6 1004.9
09 11.10 З 3 30 км {ливн. осадки} 9/3 480 м
[Cu med, cong Ac trans Ci fib]
+29.2 +26.3 84 +44 +45 опасность
перегрева
1007.1 1004.4
12 11.10 штиль 0 18 км зарница 9/4 450 м
[Cb cap Ac lent Ci fib]
+26.8 +25.9 95 +40 +40 очень
душно
1009.6 1006.9 +31.1 0.0
15 11.10 штиль 0 18 км гроза без осадков 9/6 450 м
[Cb cap Ac As]
+26.5 +25.9 97 +40 +40 очень
душно
1011.2 1008.5
18 11.10 ЮВ 2 6000 м гроза, ливневой дождь 10/5 450 м
[Cb cap As op]
+24.1 +24.1 100 +33 +33 очень
душно
1010.3 1007.6 8
21 11.10 штиль 0 18 км {дождь} 9/3 480 м
[Sc Ac As]
+23.9 +23.9 100 +33 +33 очень
душно
1009.7 1007.0
00 12.10 ЮВ 2 30 км 9/3 450 м
[Cb cap Ac trans Ci fib]
+26.1 +24.5 91 +37 +38 очень
душно
1011.1 1008.4 +23.9 8
03 12.10 З 3 30 км 9/5 480 м
[Cu med, cong Ac trans Ci fib]
+29.8 +25.7 79 +44 +49 опасность
перегрева
1011.2 1008.5
06 12.10 З 5 30 км 9/4 420 м
[Cu med, cong Ac trans Ci fib]
+30.5 +25.5 75 +45 +48 опасность
перегрева
1009.1 1006.4
09 12.10 З 3 18 км осадки на расстоянии 9/5 450 м
[Cb cap Ac trans Ci fib]
+28.4 +25.6 85 +42 +43 опасность
перегрева
1008.0 1005.3
12 12.10 штиль 0 18 км зарница 9/4 420 м
[Cb cap Ac trans Ci fib]
+26.9 +25.9 94 +40 +40 очень
душно
1010.1 1007.4 +31.1
15 12.10 В 2 18 км 9/3 480 м
[Sc Ac trans Ci fib]
+26.2 +25.4 95 +38 +38 очень
душно
1011.6 1008.9
18 12.10 ЮВ 3 18 км гроза без осадков 9/4 450 м
[Cb cap Ac trans Ci fib]
+25.5 +24.9 96 +36 +36 очень
душно
1009.0 1006.3
21 12.10 В 1 18 км гроза без осадков 9/5 450 м
[Cb cap Ac trans Ci fib]
+25.1 +24.8 98 +35 +35 очень
душно
1009.7 1007.0
00 13.10 З 1 25 км в посл. час дождь {гроза} 9/6 90 м
[Sc Ac As]
+24.9 +24.1 95 +34 +35 очень
душно
1011.7 1009.0 +24.5 1
03 13.10 штиль 0 30 км 9/5 420 м
[Cu med, cong Ac As]
+27.4 +24.8 86 +39 +45 очень
душно
1012.3 1009.6
06 13.10 ЮЗ 7 15 км осадки на расстоянии 9/6 420 м
[Cu med, cong Ac As]
+27.8 +24.8 84 +40 +41 очень
душно
1009.7 1007.0
09 13.10 З 3 15 км осадки на расстоянии {дождь} 9/5 420 м
[Cb cap Ac cuf Ci ing]
+26.8 +25.1 90 +39 +39 очень
душно
1008.6 1005.9
12 13.10 штиль 0 6000 м слабый дождь 10/5 450 м
[Cb cap As op]
+25.0 +24.3 96 +35 +35 очень
душно
1011.3 1008.6 +29.7 3
15 13.10 Ю 5 2000 м сильный дождь 10/5 420 м
[Sc As op]
+23.5 +23.2 98 +31 +31 очень
душно
1013.8 1011.1
18 13.10 Ю 3 8000 м {дождь} 10/5 90 м
[Sc As op]
+23.1 +22.8 98 +32 +32 очень
душно
1010.8 1008.1 40
21 13.10 ЮЗ 2 18 км в посл. час дождь 9/5 90 м
[Sc Ac As]
+23.1 +22.8 98 +32 +32 очень
душно
1011.4 1008.7
00 14.10 Ю 2 30 км {дождь} 9/4 150 м
[Sc Ac trans Ci fib]
+24.4 +23.5 95 +33 +34 очень
душно
1012.6 1009.9 +22.9 44
03 14.10 ЮВ 2 30 км 9/5 420 м
[Cu med, cong Ac As]
+27.5 +23.7 80 +38 +42 очень
душно
1013.4 1010.7
06 14.10 ЮЗ 2 30 км 9/4 480 м
[Cu med, cong Ac As]
+28.2 +24.6 81 +40 +45 очень
душно
1010.9 1008.2
09 14.10 З 1 30 км 9/4 480 м
[Cu hum Ac As]
+27.7 +24.6 83 +39 +40 очень
душно
1010.5 1007.8
12 14.10 Ю 1 18 км 9/3 480 м
[Sc Ac As]
+25.9 +24.3 91 +36 +36 очень
душно
1012.4 1009.7 +28.7
15 14.10 Ю 2 18 км 9/5 480 м
[Sc Ac As]
+25.5 +24.2 93 +35 +35 очень
душно
1013.1 1010.4
18 14.10 В 2 15 км слабый дождь 10/5 480 м
[Sc As op]
+24.5 +24.2 98 +34 +34 очень
душно
1012.2 1009.5 1
21 14.10 В 2 15 км слабый дождь 10/6 90 м
[Sc As op]
+24.0 +23.9 99 +33 +33 очень
душно
1012.0 1009.3
00 15.10 ЮВ 2 12 км слабый дождь 10/5 120 м
[Sc As op]
+24.9 +24.4 97 +35 +35 очень
душно
1013.6 1010.9 +23.6 3
03 15.10 В 2 30 км {дождь} 9/5 420 м
[Cu med, cong Ac trans Ci fib]
+28.1 +25.3 85 +41 +46 опасность
перегрева
1013.5 1010.8
06 15.10 З 2 30 км {дождь} 9/5 450 м
[Cb cap Ac As]
+28.9 +25.2 80 +42 +46 опасность
перегрева
1010.6 1007.9 1
09 15.10 штиль 0 30 км {ливн. осадки} 9/4 450 м
[Cb cap Ac trans Ci fib]
+27.9 +25.7 88 +41 +43 опасность
перегрева
1009.9 1007.2
12 15.10 штиль 0 18 км {ливн. осадки} 9/3 480 м
[Sc Ac As]
+25.9 +25.0 95 +37 +37 очень
душно
1012.4 1009.7 +30.0 0.0
15 15.10 В 2 18 км 9/3 480 м
[Sc Ac As]
+25.2 +24.9 98 +36 +36 очень
душно
1012.9 1010.2
18 15.10 ЮВ 1 18 км 9/3 420 м
[Sc Ac trans Ci fib]
+24.4 +23.9 97 +33 +33 очень
душно
1010.6 1007.9
21 15.10 штиль 0 18 км 9/3 420 м
[Sc Ac trans Ci fib]
+23.6 +23.6 100 +32 +32 очень
душно
1011.0 1008.3
00 16.10 В 2 30 км 9/1 480 м
[Cu hum Ac lent Ci fib]
+26.6 +25.1 91 +38 +40 очень
душно
1013.0 1010.3 +23.3 1
03 16.10 СВ 1 30 км 9/4 420 м
[Cu med, cong Ac lent Ci fib]
+31.2 +24.9 69 +44 +52 опасность
перегрева
1011.9 1009.2
06 16.10 СЗ 4 30 км 9/1 420 м
[Cu hum Ac lent Ci fib]
+32.3 +24.7 64 +45 +52 опасность
перегрева
1009.1 1006.4
09 16.10 СЗ 4 30 км 9/4 450 м
[Cb cap Ac lent Ci fib]
+29.8 +25.5 78 +44 +45 опасность
перегрева
1008.4 1005.7
12 16.10 С 1 18 км 9/3 480 м
[Sc Ac trans Ci fib]
+26.4 +25.1 93 +38 +38 очень
душно
1010.8 1008.1 +32.4
15 16.10 В 2 18 км 9/3 480 м
[Sc Ac lent Ci fib]
+25.1 +24.6 97 +35 +35 очень
душно
1012.2 1009.5
18 16.10 В 1 18 км 9/4 480 м
[Sc Ac As]
+24.8 +24.5 98 +35 +35 очень
душно
1010.6 1007.9
21 16.10 В 1 18 км 9/4 480 м
[Sc Ac trans Ci fib]
+24.3 +24.2 99 +33 +33 очень
душно
1010.3 1007.6
00 17.10 ЮВ 2 30 км 9/4 450 м
[Cb cap Ac trans Ci fib]
+25.1 +24.5 96 +35 +36 очень
душно
1011.8 1009.1 +24.2
03 17.10 З 4 1000 м ливневой дождь 9/4 480 м
[Cu med, cong Ac trans Ci fib]
+26.9 +25.2 90 +39 +43 очень
душно
1011.8 1009.1
06 17.10 СЗ 4 12 км в посл. час гроза {ливн. осадки} 9/4 450 м
[Cb cap Ac trans Ci fib]
+31.0 +26.2 76 +47 +51 опасность
перегрева
1008.5 1005.8 3
09 17.10 СЗ 2 18 км осадки на расстоянии {гроза, ливн. осадки} 9/4 450 м
[Cb cap Ac cuf Ci ing]
+28.7 +25.8 84 +43 +44 опасность
перегрева
1007.9 1005.2
12 17.10 штиль 0 18 км 9/4 480 м
[Sc Ac trans Ci fib]
+26.7 +25.6 94 +39 +39 очень
душно
1009.7 1007.0 +31.7
15 17.10 В 2 18 км 9/4 480 м
[Sc Ac trans Ci fib]
+25.8 +25.3 97 +37 +37 очень
душно
1010.9 1008.2
18 17.10 В 2 10 км гроза, ливневой дождь 10/6 450 м
[Cb cap As op]
+23.4 +23.3 99 +33 +33 очень
душно
1009.4 1006.7 2
21 17.10 ЮВ 2 10 км гроза, ливневой дождь 10/6 90 м
[Cb cap As op]
+23.5 +23.4 99 +32 +32 очень
душно
1009.7 1007.0

 

Местоположение метеостанции Bintulu (Малайзия): широта 3.20 долгота 113.03 высота над уровнем моря 5 м.

В архиве по умолчанию представлена погода в Bintulu за последнюю неделю. Архивные данные за месяц целиком и за предыдущие месяцы, начиная с января 2011 года, Вы можете получить, выбрав интересующий диапазон дат из раскрывающегося списка и нажав кнопку "Ввод!".


*Определитесь, кто Вы:
робот инопланетянин человек

Внимание! Время в таблицах - всемирное. Для получения местного времени необходимо прибавить поправку, которая в Bintulu равна 8 ч.

Смотрите также архив погоды в соседних городах и на ближайших метеорологических станциях:

Погода в Miri (Малайзия) (164 км)
Погода в Sibu (Малайзия) (165 км)
Погода в Putussibau (Индонезия) (263 км)
Погода в Brunei Airport (Бруней) (285 км)
Погода в Longbawan (Индонезия) (300 км)
Погода в Labuan (Малайзия) (339 км)
Погода в Kuching (Малайзия) (356 км)
Погода в Sintang (Индонезия) (381 км)
Погода в Nangapinoh (Индонезия) (419 км)
Погода в Paloh (Индонезия) (444 км)

Пояснения к столбцам:

Ветер - указаны скорость ветра в м/с - средняя за 10 мин, порывы в срок и между сроками (в фигурных скобках) и направление, откуда дует ветер: С - северный, СВ - северо-восточный, В - восточный, ЮВ - юго-восточный, Ю - южный, ЮЗ - юго-западный, З - западный, СЗ - северо-западный.
Видимость - горизонтальная дальность видимости в метрах или километрах. При видимости от 1 до 10 км при отсутствии осадков обычно наблюдается дымка, при ухудшении видимости до 1 км и менее - туман. В сухую погоду видимость может ухудшаться дымом, пылью или мглою.
Явления - указаны атмосферные явления, наблюдавшиеся в срок или в последний час перед сроком; фигурными скобками обозначены явления, наблюдавшиеся между сроками (за 1-3 часа до срока); квадратными скобками обозначены град или гололедные отложения с указанием их диаметра в мм.
Облачность - указаны через наклонную черту общая и нижняя облачность в баллах и высота нижней границы облаков в метрах; квадратными скобками обозначены формы облаков: Ci - перистые, Cs - перисто-слоистые, Cc - перисто-кучевые, Ac - высококучевые, As - высокослоистые, Sc - слоисто-кучевые, Ns - слоисто-дождевые, Cu - кучевые, Cb - кучево-дождевые. Подробнее классификацию облаков см. в Атласе облаков (PDF).
T - Температура воздуха - температура, измеренная на высоте 2 м над землей.
Td - Температура точки росы - температура, при понижении до которой содержащийся в воздухе водяной пар достигнет насыщения.
f - Относительная влажность воздуха - влажноcть воздуха, измеренная на высоте 2 м над землей.
Te - Эффективная температура - температура, которую ощущает одетый по сезону человек в тени. Характеристика душности погоды. При расчете учитывается влияние влажности воздуха и скорости ветра на теплоощущения человека.
Tes - Эффективная температура на солнце - температура, которую ощущает человек, с поправкой на солнечный нагрев. Характеристика знойности погоды. Зависит от высоты солнца над горизонтом, облачности и скорости ветра. Ночью, в пасмурную погоду, а также при ветре 12 м/с и более поправка равна нулю.
P - Атмосферное давление - приведенное к уровню моря атмосферное давление.
Po - Атмосферное давление - измеренное на уровне метеостанции атмосферное давление.
Tmin - Минимальная температура - минимум температуры воздуха на высоте 2 м над землей.
Tmax - Максимальная температура - максимум температуры воздуха на высоте 2 м над землей.
R - Количество осадков - Количество выпавших осадков за период времени, мм. При наведении курсора мыши на число - период времени, за который выпало указанное количество осадков.
R24 - Количество осадков - Количество выпавших осадков за 24 часа, мм.
S - Снежный покров - Высота снежного покрова, см. При наведении курсора мыши на число - состояние снежного покрова и степень покрытия местности в баллах.